Time,TemperatureF,DewpointF,PressureIn,WindDirection,WindDirectionDegrees,WindSpeedMPH,WindSpeedGustMPH,Humidity,HourlyPrecipIn,Conditions,Clouds,dailyrainin,SoftwareType,DateUTC
2013-01-12 00:00:00,56.1,47.6,29.67,West,270,12.0,15.0,73,0.00,,,0.01,Wunderground v.1.15,2013-01-12 06:00:00,
2013-01-12 00:06:00,56.3,47.4,29.67,West,265,13.0,15.0,72,0.00,,,0.00,Wunderground v.1.15,2013-01-12 06:06:00,
2013-01-12 00:12:00,56.0,47.5,29.68,West,270,13.0,14.0,73,0.00,,,0.00,Wunderground v.1.15,2013-01-12 06:12:00,
2013-01-12 00:17:00,56.1,47.6,29.68,West,263,13.0,20.0,73,0.00,,,0.00,Wunderground v.1.15,2013-01-12 06:17:00,
2013-01-12 00:23:00,56.0,47.5,29.68,West,267,13.0,15.0,73,0.00,,,0.00,Wunderground v.1.15,2013-01-12 06:23:00,
2013-01-12 00:29:00,55.8,47.3,29.68,West,273,11.0,15.0,73,0.00,,,0.00,Wunderground v.1.15,2013-01-12 06:29:00,
2013-01-12 00:35:00,55.4,47.2,29.69,West,272,10.0,25.0,74,0.00,,,0.00,Wunderground v.1.15,2013-01-12 06:35:00,
2013-01-12 00:41:00,55.7,47.5,29.68,West,268,12.0,25.0,74,0.00,,,0.00,Wunderground v.1.15,2013-01-12 06:41:00,
2013-01-12 00:46:00,55.3,47.2,29.68,West,263,12.0,25.0,74,0.00,,,0.00,Wunderground v.1.15,2013-01-12 06:46:00,
2013-01-12 00:51:00,55.3,47.2,29.69,West,263,11.0,25.0,74,0.00,,,0.00,Wunderground v.1.15,2013-01-12 06:51:00,
2013-01-12 00:57:00,55.1,47.3,29.69,West,265,11.0,25.0,75,0.00,,,0.00,Wunderground v.1.15,2013-01-12 06:57:00,
2013-01-12 01:03:00,55.1,47.3,29.69,WNW,286,11.0,25.0,75,0.00,,,0.00,Wunderground v.1.15,2013-01-12 07:03:00,
2013-01-12 01:08:00,55.1,47.0,29.69,West,269,11.0,25.0,74,0.00,,,0.00,Wunderground v.1.15,2013-01-12 07:08:00,
2013-01-12 01:14:00,55.0,47.2,29.70,West,267,12.0,25.0,75,0.00,,,0.00,Wunderground v.1.15,2013-01-12 07:14:00,
2013-01-12 01:20:00,55.0,47.2,29.71,West,269,12.0,12.0,75,0.00,,,0.00,Wunderground v.1.15,2013-01-12 07:20:00,
2013-01-12 01:25:00,55.0,47.2,29.71,West,260,12.0,25.0,75,0.00,,,0.00,Wunderground v.1.15,2013-01-12 07:25:00,
2013-01-12 01:31:00,55.0,47.2,29.71,West,275,11.0,13.0,75,0.00,,,0.00,Wunderground v.1.15,2013-01-12 07:31:00,
2013-01-12 01:37:00,55.1,47.3,29.71,West,263,11.0,25.0,75,0.00,,,0.00,Wunderground v.1.15,2013-01-12 07:37:00,
2013-01-12 01:43:00,55.0,47.2,29.71,West,271,11.0,25.0,75,0.00,,,0.00,Wunderground v.1.15,2013-01-12 07:43:00,
2013-01-12 01:48:00,55.0,47.2,29.71,West,267,11.0,25.0,75,0.00,,,0.00,Wunderground v.1.15,2013-01-12 07:48:00,
2013-01-12 01:54:00,55.2,47.1,29.72,WNW,296,10.0,25.0,74,0.00,,,0.00,Wunderground v.1.15,2013-01-12 07:54:00,
2013-01-12 02:00:00,54.9,47.1,29.72,WNW,287,9.0,25.0,75,0.00,,,0.00,Wunderground v.1.15,2013-01-12 08:00:00,
2013-01-12 02:06:00,55.1,47.3,29.72,West,273,10.0,25.0,75,0.00,,,0.00,Wunderground v.1.15,2013-01-12 08:06:00,
2013-01-12 02:12:00,55.1,47.3,29.73,West,279,10.0,25.0,75,0.00,,,0.00,Wunderground v.1.15,2013-01-12 08:12:00,
2013-01-12 02:18:00,55.1,47.0,29.73,West,263,10.0,25.0,74,0.00,,,0.00,Wunderground v.1.15,2013-01-12 08:18:00,
2013-01-12 02:24:00,55.1,47.0,29.73,West,281,10.0,25.0,74,0.00,,,0.00,Wunderground v.1.15,2013-01-12 08:24:00,
2013-01-12 02:29:00,55.1,47.0,29.73,WNW,289,10.0,25.0,74,0.00,,,0.00,Wunderground v.1.15,2013-01-12 08:29:00,
2013-01-12 02:35:00,54.9,47.1,29.73,West,275,10.0,25.0,75,0.00,,,0.00,Wunderground v.1.15,2013-01-12 08:35:00,
2013-01-12 02:41:00,55.2,47.1,29.74,West,276,10.0,25.0,74,0.00,,,0.00,Wunderground v.1.15,2013-01-12 08:41:00,
2013-01-12 02:47:00,55.3,47.2,29.74,West,281,10.0,25.0,74,0.00,,,0.00,Wunderground v.1.15,2013-01-12 08:47:00,
2013-01-12 02:52:00,55.5,47.3,29.74,WNW,283,11.0,25.0,74,0.00,,,0.00,Wunderground v.1.15,2013-01-12 08:52:00,
2013-01-12 02:58:00,55.8,47.3,29.74,West,271,12.0,25.0,73,0.00,,,0.00,Wunderground v.1.15,2013-01-12 08:58:00,
2013-01-12 03:04:00,55.9,47.4,29.74,WNW,293,12.0,25.0,73,0.00,,,0.00,Wunderground v.1.15,2013-01-12 09:04:00,
2013-01-12 03:10:00,56.0,47.1,29.75,WNW,287,11.0,25.0,72,0.00,,,0.00,Wunderground v.1.15,2013-01-12 09:10:00,
2013-01-12 03:15:00,56.1,47.2,29.74,West,275,12.0,25.0,72,0.00,,,0.00,Wunderground v.1.15,2013-01-12 09:15:00,
2013-01-12 03:21:00,55.9,47.4,29.75,WNW,289,12.0,25.0,73,0.00,,,0.00,Wunderground v.1.15,2013-01-12 09:21:00,
2013-01-12 03:27:00,55.9,47.4,29.76,West,279,12.0,25.0,73,0.00,,,0.00,Wunderground v.1.15,2013-01-12 09:27:00,
2013-01-12 03:33:00,55.8,47.3,29.76,WNW,294,12.0,25.0,73,0.00,,,0.00,Wunderground v.1.15,2013-01-12 09:33:00,
2013-01-12 03:39:00,55.7,47.2,29.76,West,281,12.0,25.0,73,0.00,,,0.00,Wunderground v.1.15,2013-01-12 09:39:00,
2013-01-12 03:45:00,55.0,46.9,29.76,WNW,298,11.0,25.0,74,0.00,,,0.00,Wunderground v.1.15,2013-01-12 09:45:00,
2013-01-12 03:51:00,54.6,46.8,29.77,WNW,302,10.0,25.0,75,0.00,,,0.00,Wunderground v.1.15,2013-01-12 09:51:00,
2013-01-12 03:57:00,54.5,46.7,29.77,WNW,302,10.0,25.0,75,0.00,,,0.00,Wunderground v.1.15,2013-01-12 09:57:00,
2013-01-12 04:03:00,54.1,46.3,29.77,NW,308,9.0,25.0,75,0.00,,,0.00,Wunderground v.1.15,2013-01-12 10:03:00,
2013-01-12 04:08:00,54.3,45.8,29.77,NW,307,10.0,25.0,73,0.00,,,0.00,Wunderground v.1.15,2013-01-12 10:08:00,
2013-01-12 04:14:00,54.2,45.7,29.78,NW,312,10.0,25.0,73,0.00,,,0.00,Wunderground v.1.15,2013-01-12 10:14:00,
2013-01-12 04:20:00,54.3,43.6,29.78,NW,304,10.0,25.0,67,0.00,,,0.00,Wunderground v.1.15,2013-01-12 10:20:00,
2013-01-12 04:26:00,54.2,37.9,29.79,NW,314,11.0,25.0,54,0.00,,,0.00,Wunderground v.1.15,2013-01-12 10:26:00,
2013-01-12 04:31:00,53.9,34.6,29.79,NW,313,11.0,25.0,48,0.00,,,0.00,Wunderground v.1.15,2013-01-12 10:31:00,
2013-01-12 04:37:00,53.6,33.3,29.79,NW,313,11.0,25.0,46,0.00,,,0.00,Wunderground v.1.15,2013-01-12 10:37:00,
2013-01-12 04:43:00,53.1,33.9,29.80,NW,305,10.0,25.0,48,0.00,,,0.00,Wunderground v.1.15,2013-01-12 10:43:00,
2013-01-12 04:49:00,52.6,34.5,29.80,NW,320,8.0,25.0,50,0.00,,,0.00,Wunderground v.1.15,2013-01-12 10:49:00,
2013-01-12 04:54:00,52.1,34.5,29.80,NW,324,8.0,25.0,51,0.00,,,0.00,Wunderground v.1.15,2013-01-12 10:54:00,
2013-01-12 05:00:00,51.8,34.7,29.80,NW,308,8.0,25.0,52,0.00,,,0.00,Wunderground v.1.15,2013-01-12 11:00:00,
2013-01-12 05:06:00,51.5,34.9,29.81,WNW,293,5.0,25.0,53,0.00,,,0.00,Wunderground v.1.15,2013-01-12 11:06:00,
2013-01-12 05:12:00,50.8,32.8,29.81,NW,316,5.0,25.0,50,0.00,,,0.00,Wunderground v.1.15,2013-01-12 11:12:00,
2013-01-12 05:18:00,50.3,32.8,29.82,NW,309,9.0,25.0,51,0.00,,,0.00,Wunderground v.1.15,2013-01-12 11:18:00,
2013-01-12 05:24:00,49.7,33.2,29.83,WNW,297,8.0,25.0,53,0.00,,,0.00,Wunderground v.1.15,2013-01-12 11:24:00,
2013-01-12 05:30:00,48.1,35.3,29.83,East,88,6.0,6.0,61,0.00,,,0.00,Wunderground v.1.15,2013-01-12 11:30:00,
2013-01-12 05:35:00,46.5,35.4,29.84,SSW,211,5.0,25.0,65,0.00,,,0.00,Wunderground v.1.15,2013-01-12 11:35:00,
2013-01-12 05:41:00,45.5,35.5,29.85,WNW,298,4.0,25.0,68,0.00,,,0.00,Wunderground v.1.15,2013-01-12 11:41:00,
2013-01-12 05:47:00,44.8,35.6,29.86,ENE,71,4.0,25.0,70,0.00,,,0.00,Wunderground v.1.15,2013-01-12 11:47:00,
2013-01-12 05:53:00,44.1,34.9,29.87,NE,46,4.0,25.0,70,0.00,,,0.00,Wunderground v.1.15,2013-01-12 11:53:00,
2013-01-12 05:58:00,43.3,34.2,29.88,NW,309,7.0,25.0,70,0.00,,,0.00,Wunderground v.1.15,2013-01-12 11:58:00,
2013-01-12 06:04:00,42.7,33.6,29.89,NW,306,9.0,25.0,70,0.00,,,0.00,Wunderground v.1.15,2013-01-12 12:04:00,
2013-01-12 06:10:00,42.0,33.6,29.89,NW,323,8.0,8.0,72,0.00,,,0.00,Wunderground v.1.15,2013-01-12 12:10:00,
2013-01-12 06:16:00,41.4,33.7,29.90,NW,311,6.0,25.0,74,0.00,,,0.00,Wunderground v.1.15,2013-01-12 12:16:00,
2013-01-12 06:22:00,41.1,33.8,29.90,WNW,302,6.0,11.0,75,0.00,,,0.00,Wunderground v.1.15,2013-01-12 12:22:00,
2013-01-12 06:28:00,40.7,33.7,29.90,WNW,294,7.0,25.0,76,0.00,,,0.00,Wunderground v.1.15,2013-01-12 12:28:00,
2013-01-12 06:33:00,40.1,33.5,29.90,NW,315,7.0,25.0,77,0.00,,,0.00,Wunderground v.1.15,2013-01-12 12:33:00,
2013-01-12 06:39:00,39.6,33.3,29.91,WNW,302,6.0,25.0,78,0.00,,,0.00,Wunderground v.1.15,2013-01-12 12:39:00,
2013-01-12 06:45:00,39.4,33.4,29.91,NW,308,4.0,25.0,79,0.00,,,0.00,Wunderground v.1.15,2013-01-12 12:45:00,
2013-01-12 06:51:00,39.2,33.2,29.91,WNW,299,4.0,25.0,79,0.00,,,0.00,Wunderground v.1.15,2013-01-12 12:51:00,
2013-01-12 06:57:00,38.9,32.9,29.91,NNE,12,4.0,25.0,79,0.00,,,0.00,Wunderground v.1.15,2013-01-12 12:57:00,
2013-01-12 07:02:00,38.6,32.6,29.92,WNW,287,4.0,25.0,79,0.00,,,0.00,Wunderground v.1.15,2013-01-12 13:02:00,
2013-01-12 07:08:00,38.4,32.1,29.92,NW,304,4.0,25.0,78,0.00,,,0.00,Wunderground v.1.15,2013-01-12 13:08:00,
2013-01-12 07:14:00,38.2,31.6,29.92,NW,317,4.0,25.0,77,0.00,,,0.00,Wunderground v.1.15,2013-01-12 13:14:00,
2013-01-12 07:20:00,38.0,31.4,29.92,NW,313,5.0,25.0,77,0.00,,,0.00,Wunderground v.1.15,2013-01-12 13:20:00,
2013-01-12 07:25:00,37.9,30.7,29.93,NNE,12,4.0,25.0,75,0.00,,,0.00,Wunderground v.1.15,2013-01-12 13:25:00,
2013-01-12 07:31:00,37.5,29.6,29.93,ESE,111,4.0,25.0,73,0.00,,,0.00,Wunderground v.1.15,2013-01-12 13:31:00,
2013-01-12 07:37:00,37.0,28.8,29.94,NNE,21,6.0,25.0,72,0.00,,,0.00,Wunderground v.1.15,2013-01-12 13:37:00,
2013-01-12 07:43:00,36.4,27.9,29.94,North,9,6.0,25.0,71,0.00,,,0.00,Wunderground v.1.15,2013-01-12 13:43:00,
2013-01-12 07:49:00,36.0,27.8,29.94,NNE,17,6.0,25.0,72,0.00,,,0.00,Wunderground v.1.15,2013-01-12 13:49:00,
2013-01-12 07:55:00,35.6,28.1,29.95,NW,306,5.0,25.0,74,0.00,,,0.00,Wunderground v.1.15,2013-01-12 13:55:00,
2013-01-12 08:01:00,35.3,27.8,29.96,ENE,57,5.0,25.0,74,0.00,,,0.00,Wunderground v.1.15,2013-01-12 14:01:00,
2013-01-12 08:06:00,35.2,28.1,29.96,NW,304,4.0,25.0,75,0.00,,,0.00,Wunderground v.1.15,2013-01-12 14:06:00,
2013-01-12 08:12:00,35.2,28.4,29.97,NNW,339,3.0,25.0,76,0.00,,,0.00,Wunderground v.1.15,2013-01-12 14:12:00,
2013-01-12 08:18:00,35.2,28.4,29.97,NE,55,3.0,25.0,76,0.00,,,0.00,Wunderground v.1.15,2013-01-12 14:18:00,
2013-01-12 08:24:00,35.2,28.4,29.97,NW,310,4.0,25.0,76,0.00,,,0.00,Wunderground v.1.15,2013-01-12 14:24:00,
2013-01-12 08:29:00,35.2,28.1,29.97,NW,316,4.0,25.0,75,0.00,,,0.00,Wunderground v.1.15,2013-01-12 14:29:00,
2013-01-12 08:35:00,35.2,28.4,29.97,NNE,21,4.0,25.0,76,0.00,,,0.00,Wunderground v.1.15,2013-01-12 14:35:00,
2013-01-12 08:40:00,35.2,28.7,29.97,ENE,76,4.0,25.0,77,0.00,,,0.00,Wunderground v.1.15,2013-01-12 14:40:00,
2013-01-12 08:46:00,35.5,29.0,29.97,NNE,28,4.0,25.0,77,0.00,,,0.00,Wunderground v.1.15,2013-01-12 14:46:00,
2013-01-12 08:51:00,35.9,28.7,29.97,ESE,120,4.0,25.0,75,0.00,,,0.00,Wunderground v.1.15,2013-01-12 14:51:00,
2013-01-12 08:57:00,35.8,28.6,29.98,North,350,5.0,25.0,75,0.00,,,0.00,Wunderground v.1.15,2013-01-12 14:57:00,
2013-01-12 09:03:00,35.7,28.2,29.98,East,84,4.0,25.0,74,0.00,,,0.00,Wunderground v.1.15,2013-01-12 15:03:00,
2013-01-12 09:09:00,35.8,28.6,29.99,North,10,4.0,25.0,75,0.00,,,0.00,Wunderground v.1.15,2013-01-12 15:09:00,
2013-01-12 09:14:00,36.1,28.6,30.00,NW,325,3.0,25.0,74,0.00,,,0.00,Wunderground v.1.15,2013-01-12 15:14:00,
2013-01-12 09:20:00,36.1,28.6,29.99,North,355,3.0,3.0,74,0.00,,,0.00,Wunderground v.1.15,2013-01-12 15:20:00,
2013-01-12 09:26:00,35.9,28.1,29.99,ENE,60,4.0,25.0,73,0.00,,,0.00,Wunderground v.1.15,2013-01-12 15:26:00,
2013-01-12 09:32:00,35.8,28.6,29.99,ENE,58,6.0,25.0,75,0.00,,,0.00,Wunderground v.1.15,2013-01-12 15:32:00,
2013-01-12 09:38:00,35.7,26.9,29.98,ESE,109,6.0,25.0,70,0.00,,,0.00,Wunderground v.1.15,2013-01-12 15:38:00,
2013-01-12 09:44:00,35.8,27.3,29.99,NE,49,7.0,25.0,71,0.00,,,0.00,Wunderground v.1.15,2013-01-12 15:44:00,
2013-01-12 09:50:00,36.0,26.8,30.00,West,277,4.0,4.0,69,0.00,,,0.00,Wunderground v.1.15,2013-01-12 15:50:00,
2013-01-12 09:56:00,36.3,27.1,30.03,SW,226,3.0,25.0,69,0.00,,,0.00,Wunderground v.1.15,2013-01-12 15:56:00,
2013-01-12 10:01:00,36.2,25.9,30.04,WNW,302,3.0,25.0,66,0.00,,,0.00,Wunderground v.1.15,2013-01-12 16:01:00,
2013-01-12 10:07:00,35.9,25.3,30.03,NE,50,4.0,25.0,65,0.00,,,0.00,Wunderground v.1.15,2013-01-12 16:07:00,
2013-01-12 10:13:00,35.5,24.9,30.02,NE,44,5.0,25.0,65,0.00,,,0.00,Wunderground v.1.15,2013-01-12 16:13:00,
2013-01-12 10:19:00,35.3,25.1,30.02,NE,42,5.0,25.0,66,0.00,,,0.00,Wunderground v.1.15,2013-01-12 16:19:00,
2013-01-12 10:24:00,35.3,25.1,30.02,NE,40,4.0,25.0,66,0.00,,,0.00,Wunderground v.1.15,2013-01-12 16:24:00,
2013-01-12 10:30:00,35.2,24.2,30.02,East,92,5.0,5.0,64,0.00,,,0.00,Wunderground v.1.15,2013-01-12 16:30:00,
2013-01-12 10:36:00,34.9,23.9,30.02,ENE,57,5.0,25.0,64,0.00,,,0.00,Wunderground v.1.15,2013-01-12 16:36:00,
2013-01-12 10:41:00,34.3,23.7,30.01,NE,44,7.0,8.0,65,0.00,,,0.00,Wunderground v.1.15,2013-01-12 16:41:00,
2013-01-12 10:47:00,34.1,23.6,30.01,NE,54,8.0,25.0,65,0.00,,,0.00,Wunderground v.1.15,2013-01-12 16:47:00,
2013-01-12 10:53:00,33.9,23.4,30.01,ENE,74,7.0,25.0,65,0.00,,,0.00,Wunderground v.1.15,2013-01-12 16:53:00,
2013-01-12 10:59:00,33.7,22.8,30.01,NE,54,7.0,25.0,64,0.00,,,0.00,Wunderground v.1.15,2013-01-12 16:59:00,
2013-01-12 11:04:00,33.4,23.3,30.00,NNE,32,7.0,25.0,66,0.00,,,0.00,Wunderground v.1.15,2013-01-12 17:04:00,
2013-01-12 11:10:00,33.9,23.4,29.99,ENE,65,6.0,25.0,65,0.00,,,0.00,Wunderground v.1.15,2013-01-12 17:10:00,
2013-01-12 11:16:00,33.6,23.1,29.99,ENE,57,8.0,25.0,65,0.00,,,0.00,Wunderground v.1.15,2013-01-12 17:16:00,
2013-01-12 11:22:00,33.2,23.1,29.99,NE,48,9.0,25.0,66,0.00,,,0.00,Wunderground v.1.15,2013-01-12 17:22:00,
2013-01-12 11:27:00,33.4,24.3,29.99,NE,40,8.0,25.0,69,0.00,,,0.00,Wunderground v.1.15,2013-01-12 17:27:00,
2013-01-12 11:33:00,33.5,23.7,30.00,WNW,303,6.0,25.0,67,0.00,,,0.00,Wunderground v.1.15,2013-01-12 17:33:00,
2013-01-12 11:39:00,33.5,23.4,30.00,NNE,17,5.0,25.0,66,0.00,,,0.00,Wunderground v.1.15,2013-01-12 17:39:00,
2013-01-12 11:45:00,33.3,24.2,30.00,NE,47,6.0,25.0,69,0.00,,,0.00,Wunderground v.1.15,2013-01-12 17:45:00,
2013-01-12 11:50:00,33.3,23.5,30.00,East,88,5.0,5.0,67,0.00,,,0.00,Wunderground v.1.15,2013-01-12 17:50:00,
2013-01-12 11:56:00,33.2,23.1,30.00,East,99,4.0,25.0,66,0.00,,,0.00,Wunderground v.1.15,2013-01-12 17:56:00,
2013-01-12 12:02:00,33.0,22.9,29.99,NE,42,5.0,25.0,66,0.00,,,0.00,Wunderground v.1.15,2013-01-12 18:02:00,
2013-01-12 12:07:00,33.0,23.2,29.99,ENE,61,5.0,25.0,67,0.00,,,0.00,Wunderground v.1.15,2013-01-12 18:07:00,
2013-01-12 12:13:00,33.0,22.9,29.99,ENE,58,6.0,25.0,66,0.00,,,0.00,Wunderground v.1.15,2013-01-12 18:13:00,
2013-01-12 12:19:00,32.9,22.8,29.99,NNE,23,8.0,25.0,66,0.00,,,0.00,Wunderground v.1.15,2013-01-12 18:19:00,
2013-01-12 12:25:00,32.9,23.1,29.98,ENE,59,7.0,25.0,67,0.00,,,0.00,Wunderground v.1.15,2013-01-12 18:25:00,
2013-01-12 12:30:00,32.9,22.8,29.97,NE,44,8.0,25.0,66,0.00,,,0.00,Wunderground v.1.15,2013-01-12 18:30:00,
2013-01-12 12:36:00,32.9,23.1,29.97,NE,34,6.0,25.0,67,0.00,,,0.00,Wunderground v.1.15,2013-01-12 18:36:00,
2013-01-12 12:42:00,32.9,23.5,29.97,NE,40,6.0,25.0,68,0.00,,,0.00,Wunderground v.1.15,2013-01-12 18:42:00,
2013-01-12 12:48:00,33.0,23.2,29.97,ENE,57,5.0,25.0,67,0.00,,,0.00,Wunderground v.1.15,2013-01-12 18:48:00,
2013-01-12 12:53:00,33.0,23.2,29.97,ENE,57,4.0,25.0,67,0.00,,,0.00,Wunderground v.1.15,2013-01-12 18:53:00,
2013-01-12 12:59:00,32.8,23.0,29.98,ENE,63,5.0,25.0,67,0.00,,,0.00,Wunderground v.1.15,2013-01-12 18:59:00,
2013-01-12 13:05:00,32.6,22.8,29.97,ENE,57,5.0,25.0,67,0.00,,,0.00,Wunderground v.1.15,2013-01-12 19:05:00,
2013-01-12 13:11:00,32.6,22.8,29.97,ENE,62,5.0,25.0,67,0.00,,,0.00,Wunderground v.1.15,2013-01-12 19:11:00,
2013-01-12 13:17:00,32.7,23.6,29.97,NE,52,5.0,25.0,69,0.00,,,0.00,Wunderground v.1.15,2013-01-12 19:17:00,
2013-01-12 13:23:00,32.7,22.9,29.97,ENE,57,5.0,25.0,67,0.00,,,0.00,Wunderground v.1.15,2013-01-12 19:23:00,
2013-01-12 13:29:00,32.9,22.8,29.98,ENE,66,4.0,25.0,66,0.00,,,0.00,Wunderground v.1.15,2013-01-12 19:29:00,
2013-01-12 13:35:00,33.1,23.0,29.99,NNE,18,2.0,25.0,66,0.00,,,0.00,Wunderground v.1.15,2013-01-12 19:35:00,
2013-01-12 13:40:00,33.0,22.5,29.99,NE,48,4.0,25.0,65,0.00,,,0.00,Wunderground v.1.15,2013-01-12 19:40:00,
2013-01-12 13:46:00,32.9,22.8,29.99,ENE,70,4.0,25.0,66,0.00,,,0.00,Wunderground v.1.15,2013-01-12 19:46:00,
2013-01-12 13:52:00,33.0,22.5,30.00,ENE,58,4.0,6.0,65,0.00,,,0.00,Wunderground v.1.15,2013-01-12 19:52:00,
2013-01-12 13:58:00,32.9,22.8,30.00,NE,55,5.0,25.0,66,0.00,,,0.00,Wunderground v.1.15,2013-01-12 19:58:00,
2013-01-12 14:04:00,32.9,22.8,30.00,NNW,327,5.0,25.0,66,0.00,,,0.00,Wunderground v.1.15,2013-01-12 20:04:00,
2013-01-12 14:10:00,32.9,22.8,30.00,NE,49,3.0,25.0,66,0.00,,,0.00,Wunderground v.1.15,2013-01-12 20:10:00,
2013-01-12 14:16:00,32.9,23.1,30.00,NE,54,3.0,25.0,67,0.00,,,0.00,Wunderground v.1.15,2013-01-12 20:16:00,
2013-01-12 14:21:00,33.0,23.2,30.00,NE,53,3.0,5.0,67,0.00,,,0.00,Wunderground v.1.15,2013-01-12 20:21:00,
2013-01-12 14:27:00,32.8,22.7,30.00,ENE,74,4.0,25.0,66,0.00,,,0.00,Wunderground v.1.15,2013-01-12 20:27:00,
2013-01-12 14:33:00,32.6,22.8,29.99,NE,55,5.0,25.0,67,0.00,,,0.00,Wunderground v.1.15,2013-01-12 20:33:00,
2013-01-12 14:38:00,32.4,22.7,29.99,ENE,67,5.0,25.0,67,0.00,,,0.00,Wunderground v.1.15,2013-01-12 20:38:00,
2013-01-12 14:44:00,32.3,22.9,30.00,NNE,17,5.0,25.0,68,0.00,,,0.00,Wunderground v.1.15,2013-01-12 20:44:00,
2013-01-12 14:49:00,32.2,22.5,30.00,ENE,57,4.0,25.0,67,0.00,,,0.00,Wunderground v.1.15,2013-01-12 20:49:00,
2013-01-12 14:55:00,32.0,23.0,30.00,NNE,24,5.0,25.0,69,0.00,,,0.00,Wunderground v.1.15,2013-01-12 20:55:00,
2013-01-12 15:01:00,31.9,22.5,29.99,ENE,61,6.0,25.0,68,0.00,,,0.00,Wunderground v.1.15,2013-01-12 21:01:00,
2013-01-12 15:07:00,31.8,22.8,30.00,ENE,74,5.0,25.0,69,0.00,,,0.00,Wunderground v.1.15,2013-01-12 21:07:00,
2013-01-12 15:12:00,31.8,22.4,30.00,NE,45,5.0,25.0,68,0.00,,,0.00,Wunderground v.1.15,2013-01-12 21:12:00,
2013-01-12 15:18:00,31.7,22.3,30.00,NE,49,6.0,25.0,68,0.00,,,0.00,Wunderground v.1.15,2013-01-12 21:18:00,
2013-01-12 15:24:00,31.6,22.6,29.98,ENE,69,7.0,25.0,69,0.00,,,0.00,Wunderground v.1.15,2013-01-12 21:24:00,
2013-01-12 15:29:00,31.5,22.5,29.98,NE,44,8.0,25.0,69,0.00,,,0.00,Wunderground v.1.15,2013-01-12 21:29:00,
2013-01-12 15:35:00,31.5,22.5,29.98,ENE,62,7.0,25.0,69,0.00,,,0.00,Wunderground v.1.15,2013-01-12 21:35:00,
2013-01-12 15:41:00,31.5,22.8,29.96,East,85,7.0,25.0,70,0.00,,,0.00,Wunderground v.1.15,2013-01-12 21:41:00,
2013-01-12 15:47:00,31.6,22.9,29.97,NE,55,6.0,25.0,70,0.00,,,0.00,Wunderground v.1.15,2013-01-12 21:47:00,
2013-01-12 15:52:00,31.5,22.5,29.96,East,84,6.0,25.0,69,0.00,,,0.00,Wunderground v.1.15,2013-01-12 21:52:00,
2013-01-12 15:58:00,31.4,22.4,29.96,East,85,6.0,25.0,69,0.00,,,0.00,Wunderground v.1.15,2013-01-12 21:58:00,
2013-01-12 16:04:00,31.4,22.7,29.98,ENE,66,6.0,25.0,70,0.00,,,0.00,Wunderground v.1.15,2013-01-12 22:04:00,
2013-01-12 16:10:00,31.2,22.5,29.97,East,98,6.0,25.0,70,0.00,,,0.00,Wunderground v.1.15,2013-01-12 22:10:00,
2013-01-12 16:15:00,31.2,22.5,29.96,East,85,6.0,25.0,70,0.00,,,0.00,Wunderground v.1.15,2013-01-12 22:15:00,
2013-01-12 16:21:00,31.0,23.0,29.96,NE,51,6.0,25.0,72,0.00,,,0.00,Wunderground v.1.15,2013-01-12 22:21:00,
2013-01-12 16:27:00,30.7,22.7,29.96,ENE,78,7.0,25.0,72,0.00,,,0.00,Wunderground v.1.15,2013-01-12 22:27:00,
2013-01-12 16:33:00,30.7,22.7,29.95,ENE,73,7.0,25.0,72,0.00,,,0.00,Wunderground v.1.15,2013-01-12 22:33:00,
2013-01-12 16:39:00,30.7,22.7,29.94,NE,56,6.0,25.0,72,0.00,,,0.00,Wunderground v.1.15,2013-01-12 22:39:00,
2013-01-12 16:45:00,30.6,22.6,29.94,East,85,7.0,25.0,72,0.00,,,0.00,Wunderground v.1.15,2013-01-12 22:45:00,
2013-01-12 16:51:00,30.6,23.0,29.95,East,80,7.0,9.0,73,0.00,,,0.00,Wunderground v.1.15,2013-01-12 22:51:00,
2013-01-12 16:57:00,30.6,23.0,29.96,ENE,67,6.0,25.0,73,0.00,,,0.00,Wunderground v.1.15,2013-01-12 22:57:00,
2013-01-12 17:02:00,30.6,23.0,29.94,East,80,5.0,25.0,73,0.00,,,0.00,Wunderground v.1.15,2013-01-12 23:02:00,
2013-01-12 17:08:00,30.7,23.1,29.95,East,91,6.0,25.0,73,0.00,,,0.00,Wunderground v.1.15,2013-01-12 23:08:00,
2013-01-12 17:14:00,30.7,23.4,29.97,ENE,76,6.0,25.0,74,0.00,,,0.00,Wunderground v.1.15,2013-01-12 23:14:00,
2013-01-12 17:20:00,30.7,23.1,29.98,East,86,7.0,7.0,73,0.00,,,0.00,Wunderground v.1.15,2013-01-12 23:20:00,
2013-01-12 17:26:00,30.6,23.0,30.00,ENE,68,7.0,25.0,73,0.00,,,0.00,Wunderground v.1.15,2013-01-12 23:26:00,
2013-01-12 17:31:00,30.5,22.9,30.00,ENE,57,7.0,25.0,73,0.00,,,0.00,Wunderground v.1.15,2013-01-12 23:31:00,
2013-01-12 17:36:00,30.5,23.2,30.00,NNE,28,7.0,25.0,74,0.00,,,0.00,Wunderground v.1.15,2013-01-12 23:36:00,
2013-01-12 17:42:00,30.4,23.1,29.99,NE,55,7.0,25.0,74,0.00,,,0.00,Wunderground v.1.15,2013-01-12 23:42:00,
2013-01-12 17:48:00,30.4,23.1,30.00,ENE,67,8.0,25.0,74,0.00,,,0.00,Wunderground v.1.15,2013-01-12 23:48:00,
2013-01-12 17:54:00,30.5,23.5,30.01,ENE,74,8.0,25.0,75,0.00,,,0.00,Wunderground v.1.15,2013-01-12 23:54:00,
2013-01-12 17:59:00,30.5,23.5,30.00,NE,53,7.0,25.0,75,0.00,,,0.00,Wunderground v.1.15,2013-01-12 23:59:00,
2013-01-12 18:05:00,30.4,23.1,29.99,ENE,61,8.0,25.0,74,0.00,,,0.00,Wunderground v.1.15,2013-01-13 00:05:00,
2013-01-12 18:11:00,30.4,23.1,30.00,East,96,9.0,25.0,74,0.00,,,0.00,Wunderground v.1.15,2013-01-13 00:11:00,
2013-01-12 18:17:00,29.8,23.8,30.00,NNE,24,9.0,25.0,78,0.00,,,0.00,Wunderground v.1.15,2013-01-13 00:17:00,
2013-01-12 18:23:00,29.0,24.5,29.99,ENE,63,10.0,25.0,83,0.00,,,0.00,Wunderground v.1.15,2013-01-13 00:23:00,
2013-01-12 18:29:00,28.3,24.6,29.99,NE,51,10.0,25.0,86,0.00,,,0.00,Wunderground v.1.15,2013-01-13 00:29:00,
2013-01-12 18:35:00,28.0,24.9,29.99,ENE,63,10.0,25.0,88,0.00,,,0.00,Wunderground v.1.15,2013-01-13 00:35:00,
2013-01-12 18:41:00,27.8,25.0,29.99,ENE,57,9.0,25.0,89,0.00,,,0.00,Wunderground v.1.15,2013-01-13 00:41:00,
2013-01-12 18:47:00,27.7,25.2,29.99,NE,56,8.0,25.0,90,0.00,,,0.00,Wunderground v.1.15,2013-01-13 00:47:00,
2013-01-12 18:52:00,27.6,25.3,30.00,NE,54,8.0,25.0,91,0.00,,,0.00,Wunderground v.1.15,2013-01-13 00:52:00,
2013-01-12 18:58:00,27.5,25.2,29.99,ENE,58,9.0,25.0,91,0.00,,,0.00,Wunderground v.1.15,2013-01-13 00:58:00,
2013-01-12 19:03:00,27.4,25.1,29.98,ENE,78,11.0,25.0,91,0.00,,,0.00,Wunderground v.1.15,2013-01-13 01:03:00,
2013-01-12 19:09:00,27.4,25.1,29.98,NE,55,10.0,25.0,91,0.00,,,0.00,Wunderground v.1.15,2013-01-13 01:09:00,
2013-01-12 19:15:00,27.4,25.4,29.97,ENE,57,8.0,25.0,92,0.00,,,0.00,Wunderground v.1.15,2013-01-13 01:15:00,
2013-01-12 19:21:00,27.3,25.3,29.95,ENE,73,8.0,25.0,92,0.00,,,0.00,Wunderground v.1.15,2013-01-13 01:21:00,
2013-01-12 19:27:00,27.1,25.1,29.95,ENE,78,8.0,25.0,92,0.00,,,0.00,Wunderground v.1.15,2013-01-13 01:27:00,
2013-01-12 19:32:00,27.1,25.1,29.95,ENE,68,8.0,25.0,92,0.00,,,0.00,Wunderground v.1.15,2013-01-13 01:32:00,
2013-01-12 19:38:00,27.1,25.3,29.94,ENE,65,7.0,25.0,93,0.00,,,0.00,Wunderground v.1.15,2013-01-13 01:38:00,
2013-01-12 19:43:00,27.0,25.2,29.94,East,87,8.0,25.0,93,0.00,,,0.00,Wunderground v.1.15,2013-01-13 01:43:00,
2013-01-12 19:49:00,27.0,25.0,29.94,East,89,9.0,25.0,92,0.00,,,0.00,Wunderground v.1.15,2013-01-13 01:49:00,
2013-01-12 19:55:00,26.9,24.9,29.94,East,81,8.0,25.0,92,0.00,,,0.00,Wunderground v.1.15,2013-01-13 01:55:00,
2013-01-12 20:01:00,26.9,25.1,29.93,NE,40,8.0,25.0,93,0.00,,,0.00,Wunderground v.1.15,2013-01-13 02:01:00,
2013-01-12 20:06:00,26.8,25.0,29.94,East,88,7.0,25.0,93,0.00,,,0.00,Wunderground v.1.15,2013-01-13 02:06:00,
2013-01-12 20:12:00,26.8,25.0,29.95,ENE,74,7.0,25.0,93,0.00,,,0.00,Wunderground v.1.15,2013-01-13 02:12:00,
2013-01-12 20:18:00,26.8,25.0,29.96,ENE,71,6.0,25.0,93,0.00,,,0.00,Wunderground v.1.15,2013-01-13 02:18:00,
2013-01-12 20:24:00,26.8,25.0,29.96,East,84,7.0,25.0,93,0.00,,,0.00,Wunderground v.1.15,2013-01-13 02:24:00,
2013-01-12 20:29:00,26.8,24.8,29.97,ENE,78,7.0,25.0,92,0.00,,,0.00,Wunderground v.1.15,2013-01-13 02:29:00,
2013-01-12 20:35:00,26.7,24.7,29.98,ENE,63,6.0,25.0,92,0.00,,,0.00,Wunderground v.1.15,2013-01-13 02:35:00,
2013-01-12 20:41:00,26.8,24.8,30.00,NE,55,6.0,25.0,92,0.00,,,0.00,Wunderground v.1.15,2013-01-13 02:41:00,
2013-01-12 20:47:00,26.7,24.7,29.98,East,82,6.0,25.0,92,0.00,,,0.00,Wunderground v.1.15,2013-01-13 02:47:00,
2013-01-12 20:52:00,26.7,24.7,29.99,ENE,63,6.0,25.0,92,0.00,,,0.00,Wunderground v.1.15,2013-01-13 02:52:00,
2013-01-12 20:58:00,26.7,24.7,30.00,ENE,66,6.0,25.0,92,0.00,,,0.00,Wunderground v.1.15,2013-01-13 02:58:00,
2013-01-12 21:04:00,26.6,24.8,29.99,ENE,78,6.0,25.0,93,0.00,,,0.00,Wunderground v.1.15,2013-01-13 03:04:00,
2013-01-12 21:10:00,26.5,24.8,30.00,ENE,68,6.0,25.0,93,0.00,,,0.00,Wunderground v.1.15,2013-01-13 03:10:00,
2013-01-12 21:15:00,26.5,24.8,30.00,NE,55,6.0,25.0,93,0.00,,,0.00,Wunderground v.1.15,2013-01-13 03:15:00,
2013-01-12 21:21:00,26.4,24.7,29.98,ENE,69,7.0,25.0,93,0.00,,,0.00,Wunderground v.1.15,2013-01-13 03:21:00,
2013-01-12 21:27:00,26.4,24.7,29.99,NE,51,7.0,25.0,93,0.00,,,0.00,Wunderground v.1.15,2013-01-13 03:27:00,
2013-01-12 21:33:00,26.4,24.7,29.99,NE,52,7.0,25.0,93,0.00,,,0.00,Wunderground v.1.15,2013-01-13 03:33:00,
2013-01-12 21:38:00,26.4,24.7,29.99,ENE,59,7.0,25.0,93,0.00,,,0.00,Wunderground v.1.15,2013-01-13 03:38:00,
2013-01-12 21:44:00,26.4,24.7,29.99,NE,47,7.0,25.0,93,0.00,,,0.00,Wunderground v.1.15,2013-01-13 03:44:00,
2013-01-12 21:50:00,26.2,24.5,29.98,NE,51,10.0,10.0,93,0.00,,,0.00,Wunderground v.1.15,2013-01-13 03:50:00,
2013-01-12 21:56:00,26.2,24.5,30.00,East,91,9.0,25.0,93,0.00,,,0.00,Wunderground v.1.15,2013-01-13 03:56:00,
2013-01-12 22:02:00,26.0,24.3,29.99,NE,38,8.0,25.0,93,0.00,,,0.00,Wunderground v.1.15,2013-01-13 04:02:00,
2013-01-12 22:08:00,25.9,23.9,29.99,NNE,22,9.0,25.0,92,0.00,,,0.00,Wunderground v.1.15,2013-01-13 04:08:00,
2013-01-12 22:14:00,25.5,23.5,29.99,East,88,10.0,25.0,92,0.00,,,0.00,Wunderground v.1.15,2013-01-13 04:14:00,
2013-01-12 22:19:00,24.9,22.6,29.98,East,89,12.0,25.0,91,0.00,,,0.00,Wunderground v.1.15,2013-01-13 04:19:00,
2013-01-12 22:25:00,24.6,22.3,29.98,East,80,12.0,25.0,91,0.00,,,0.00,Wunderground v.1.15,2013-01-13 04:25:00,
2013-01-12 22:31:00,24.5,22.0,29.99,NE,46,12.0,25.0,90,0.00,,,0.00,Wunderground v.1.15,2013-01-13 04:31:00,
2013-01-12 22:37:00,24.4,22.2,29.99,ENE,59,11.0,25.0,91,0.00,,,0.00,Wunderground v.1.15,2013-01-13 04:37:00,
2013-01-12 22:42:00,24.2,22.0,29.99,NNE,29,10.0,25.0,91,0.00,,,0.00,Wunderground v.1.15,2013-01-13 04:42:00,
2013-01-12 22:48:00,24.0,21.8,30.00,ENE,74,9.0,25.0,91,0.00,,,0.00,Wunderground v.1.15,2013-01-13 04:48:00,
2013-01-12 22:54:00,23.7,21.5,30.00,East,89,9.0,25.0,91,0.00,,,0.00,Wunderground v.1.15,2013-01-13 04:54:00,
2013-01-12 22:59:00,23.5,21.3,29.99,East,81,9.0,25.0,91,0.00,,,0.00,Wunderground v.1.15,2013-01-13 04:59:00,
2013-01-12 23:01:00,23.5,21.3,29.98,East,80,8.0,12.0,91,0.00,,,0.00,Wunderground v.1.15,2013-01-13 05:01:00,
2013-01-12 23:03:00,23.5,21.3,29.97,ENE,78,7.0,25.0,91,0.00,,,0.00,Wunderground v.1.15,2013-01-13 05:03:00,
2013-01-12 23:04:00,23.4,21.2,29.97,East,88,8.0,25.0,91,0.00,,,0.00,Wunderground v.1.15,2013-01-13 05:04:00,
2013-01-12 23:06:00,23.4,21.2,29.97,East,90,8.0,25.0,91,0.00,,,0.00,Wunderground v.1.15,2013-01-13 05:06:00,
2013-01-12 23:12:00,23.3,21.1,29.99,NE,50,8.0,25.0,91,0.00,,,0.00,Wunderground v.1.15,2013-01-13 05:12:00,
2013-01-12 23:18:00,23.3,21.1,29.97,NE,50,8.0,25.0,91,0.00,,,0.00,Wunderground v.1.15,2013-01-13 05:18:00,
2013-01-12 23:23:00,23.4,21.2,29.98,NE,50,8.0,25.0,91,0.00,,,0.00,Wunderground v.1.15,2013-01-13 05:23:00,
2013-01-12 23:29:00,23.4,21.2,29.99,ENE,58,9.0,25.0,91,0.00,,,0.00,Wunderground v.1.15,2013-01-13 05:29:00,
2013-01-12 23:34:00,23.3,20.8,29.98,ENE,75,9.0,25.0,90,0.00,,,0.00,Wunderground v.1.15,2013-01-13 05:34:00,
2013-01-12 23:40:00,23.2,20.7,29.98,East,88,8.0,8.0,90,0.00,,,0.00,Wunderground v.1.15,2013-01-13 05:40:00,
2013-01-12 23:45:00,23.0,20.2,29.97,ENE,66,8.0,25.0,89,0.00,,,0.00,Wunderground v.1.15,2013-01-13 05:45:00,
2013-01-12 23:51:00,22.9,20.1,29.98,East,82,8.0,10.0,89,0.00,,,0.00,Wunderground v.1.15,2013-01-13 05:51:00,
2013-01-12 23:57:00,23.0,20.2,29.99,East,89,7.0,25.0,89,0.00,,,0.00,Wunderground v.1.15,2013-01-13 05:57:00,